Location: Rio de Janeiro
(22.9068°S, 43.1729°W)
Time: 20:19:07
(UTC-03:00)

Hubble Space Telescope - Visible Passes

Search period start: 12 March 2026 00:00
Search period end: 22 March 2026 00:00
Orbit: 476 x 478 km, 28.5° (Epoch: 12 March)

Date Brightness Start Highest point End Pass type
(mag) Time Alt. Az. Time Alt. Az. Time Alt. Az.
12 Mar 0.7 04:57:31 21° WNW 04:59:51 66° NNE 05:03:38 10° ESE visible
13 Mar 0.6 04:28:45 59° NNW 04:29:12 66° NNE 04:32:58 10° ESE visible
14 Mar 2.1 03:59:57 35° E 03:59:57 35° E 04:02:17 10° ESE visible
15 Mar 3.7 03:31:05 13° ESE 03:31:05 13° ESE 03:31:36 10° ESE visible
15 Mar 1.3 05:05:09 17° WSW 05:07:42 43° S 05:11:21 10° ESE visible
16 Mar 1.2 04:36:14 37° SW 04:37:00 43° S 04:40:38 10° ESE visible
17 Mar 1.9 04:07:18 34° SSE 04:07:18 34° SSE 04:09:55 10° ESE visible
18 Mar 3.5 03:38:20 15° ESE 03:38:20 15° ESE 03:39:11 10° ESE visible
18 Mar 1.7 05:12:24 11° WSW 05:15:40 34° S 05:19:10 10° ESE visible
19 Mar 1.7 04:43:26 25° SW 04:44:54 34° S 04:48:24 10° ESE visible
20 Mar 1.8 04:14:29 33° SSE 04:14:29 33° SSE 04:17:38 10° ESE visible
21 Mar 3.2 03:45:33 18° ESE 03:45:33 18° ESE 03:46:50 10° ESE visible
21 Mar 0.9 05:19:38 10° WSW 05:23:23 63° SSE 05:27:08 10° E visible
